Home   Weather   Elbląg   Past weeks

Flag for Poland Past Weather in Elbląg, Poland — Yesterday and Last 2 Weeks

Now
66 °F

Partly sunny.


Feels Like: 66 °F
Forecast: 59 / 71 °F
Wind: 5 mph from East

Location: Hel

Current Time: Jul 23, 2017 at 12:53:32 pm

Latest Report: Jul 23, 2017 at 12:00 pm


Visibility: 19 mi

Pressure: 29.98 "Hg

Humidity: 81%

Dew Point: 60 °F

Location of ElblągLocation

Past Weather in Elbląg — Graph

°F

Elbląg Temperature Yesterday

Maximum temperature yesterday: 69 °F (at 1:00 pm)
Minimum temperature yesterday: 56 °F (at 6:00 am)
Average temperature yesterday: 63 °F

High & Low Weather Summary for the Past Weeks

 TemperatureHumidityPressure
High71 °F (Jul 12, 2:00 pm)98% (Jul 10, 6:00 am)30.16 "Hg (Jul 10, 6:00 am)
Low49 °F (Jul 15, 4:00 am)50% (Jul 13, 3:00 pm)29.64 "Hg (Jul 11, 2:00 am)
Average62 °F81%29.94 "Hg
* Reported Jul 8 10:00 am — Jul 23 10:00 am, Elbląg. Weather by CustomWeather, © 2017

Note: Actual official high and low records may vary slightly from our data, if they occured in-between our weather recording intervals... More about our weather records

Advertising

Elbląg Weather History for the Previous 24 Hours

Scroll right to see more
 ConditionsComfort  
Time TempWeatherWind HumidityBarometerVisibility
10:00 am
Sun, Jul 23
65 °FOvercast.6 mph82%29.98 "Hg19 mi
9:00 am64 °FOvercast.3 mph84%30.00 "Hg19 mi
8:00 am63 °FOvercast.5 mph87%30.01 "Hg19 mi
7:00 am62 °FOvercast.5 mph88%30.01 "Hg19 mi
6:00 am62 °FOvercast.6 mph89%30.01 "Hg19 mi
1:00 am61 °FPassing clouds.5 mph91%30.05 "Hg19 mi
12:00 am62 °FPassing clouds.5 mph88%30.07 "Hg19 mi
11:00 pm
Sat, Jul 22
62 °FPassing clouds.5 mph87%30.07 "Hg19 mi
10:00 pm62 °FPassing clouds.6 mph86%30.08 "Hg19 mi
9:00 pm62 °FPartly sunny.6 mph83%30.09 "Hg19 mi
8:00 pm63 °FPartly sunny.5 mph80%30.08 "Hg19 mi
7:00 pm65 °FPartly sunny.6 mph79%30.07 "Hg19 mi
6:00 pm67 °FScattered clouds.5 mph73%30.06 "Hg19 mi
5:00 pm68 °FScattered clouds.6 mph71%30.07 "Hg19 mi
4:00 pm69 °FPassing clouds.6 mph70%30.08 "Hg22 mi
3:00 pm69 °FScattered clouds.6 mph69%30.09 "Hg22 mi
2:00 pm69 °FScattered clouds.6 mph68%30.09 "Hg22 mi
1:00 pm69 °FScattered clouds.5 mph65%30.09 "Hg22 mi
12:00 pm68 °FPassing clouds.5 mph70%30.09 "Hg22 mi
Weather by CustomWeather, © 2017

See weather overviewHow to use our weather pages